Погода Форт-Шевченко

Погода Форт-Шевченко : погода сейчас, прогноз погоды и архив. Всё, что Вы хотите узнать о погоде Форт-Шевченко!

Хотите узнать прогноз погоды Форт-Шевченко? Тогда Вам сюда: Погода Форт-Шевченко

Поиск расширенной информации на нашем сайте:

Другие новости

Новости СМИ2

Главная страница сайта

Новости сайта

03.07.2017

Напоминаем, что на нашем специализированном сайте Метеоцентр.Азия вы можете получить высокодетализированные автоматические прогнозы погоды по пунктам России, СНГ и мира в авиационном формате (включающие направление и скорость ветра, видимость, явления погоды, количество и форму облачности, нижнюю и верхнюю границу облачности).

Рекомендуем: Самая подробная информация Производство косметики в Москве здесь.

Погода Форт-Шевченко - сегодня

Время (UTC), дата Ветер
(°,м/с) 
Видим.   Явления Облачность Т
(°С)
Тd
(°С)
f(%) Тe
(°С)
Pmin
(гПа)
dP
(гПа)
Po
(мм)
O2
(г/м3)
Тmin Tmax R s Состояние
почвы
06 15.08.17 350 (С) 10 км    3/0 верхняя 
[Ci sp]
+26.9 +17.9 58 +41  1012.3  0.1  761  275  +22         
09 15.08.17 360 (С) 10 км    3/0 верхняя 
[Ci sp]
+28.3 +17.4 52 +41  1012.4  0.1  761  274           
12 15.08.17 360 (С) 10 км    4/0 верхняя 
[Ci sp]
+28.1 +16.5 49 +39  1011.9  -0.5  761  275           
15 15.08.17 050 (СВ) 10  10 км    8/0 верхняя 
[Ci sp]
+27.8 +13.9 42 +34  1011.8  -0.1  761  276    +29.7       
18 15.08.17 050 (СВ) н/о    8/0 средняя 
[Ac trans]
+26 +14.9 50 +34  1013.1  1.3  762  277    +29.7       
21 15.08.17 060 (СВ) н/о    6/0 средняя 
[Ac trans]
+24.8 +15.2 55 +33  1012.8  -0.3  762  278           
00 16.08.17 070 (В) 10 км    5/0 верхняя 
[Ci sp]
+25.2 +13.2 47 +31  1013.1  0.3  762  279           
03 16.08.17 080 (В) 10 км    8/0 средняя 
[Ac trans]
+25 +9 36 +25  1014.1  763  280           
06 16.08.17 100 (В) 10 км    8/0 верхняя 
[Ci sp]
+30.4 +8.1 25 +30  1015  0.9  763  275  +24.8         
09 16.08.17 270 (З) 10 км    10/0 средняя 
[Ac As]
+27.2 +12.2 39 +31  1015.2  0.2  763  278           
12 16.08.17 040 (СВ) 10 км    8/0 средняя 
[Ac trans]
+29.4 +11.7 34 +33  1014  -0.4  763  276           
15 16.08.17 030 (СВ) 10 км    10/0 средняя 
[Ac As]
+27.9 +13.6 41 +34  1014.7  -0.1  763  276    +30.7       
18 16.08.17 050 (СВ) н/о    10/0 средняя 
[Ac As]
+26.4 +15.6 51 +36  1015.1  0.4  763  277    +30.7       
21 16.08.17 070 (В) н/о    10/0 средняя 
[Ac As]
+26.8 +11.9 40 +30  1014.9  -0.2  763  278           
00 17.08.17 090 (В) н/о    10/0 средняя 
[Ac As]
+27.6 +7 27 +28  1014.9  763  278           
03 17.08.17 110 (В) 10 км    8/0 средняя 
[Ac trans]
+27.1 +0.9 18 +27  1015.9  764  280           
06 17.08.17 110 (В) 10 км    8/0 верхняя 
[Ci sp]
+30.4 -0.9 13 +30  1016.3  0.4  764  277  +26         
09 17.08.17 250 (З) 10 км    9/0 верхняя 
[Ci sp]
+29.2 +9.4 29 +29  1016.3  764  277           
12 17.08.17 тихо ()   10 км    9/0 верхняя 
[Ci sp]
+31.7 +3.2 16 +32  1016.1  -0.2  764  275           
15 17.08.17 050 (СВ) 10 км    9/0 верхняя 
[Ci sp]
+30.5 +1.5 16 +31  1015.1  -1  763  276    +34.1       
18 17.08.17 060 (СВ) н/о    8/0 верхняя 
[Ci sp]
+29.2 +0.4 16 +29  1015.1  763  278    +34.1       
21 17.08.17 100 (В) н/о    8/0 верхняя 
[Ci sp]
+28.4 +1.5 18 +28  1015.3  0.2  764  278           
00 18.08.17 120 (ЮВ) н/о    6/0 верхняя 
[Ci sp]
+26 +3 23 +26  1014.3  -1  763  280           
03 18.08.17 130 (ЮВ) 10 км    10/0 средняя 
[Ac As]
+28.8 +2.7 19 +29  1014.6  0.3  763  278           
06 18.08.17 130 (ЮВ) 10 км    9/0 верхняя 
[Ci sp]
+30.6 -1.7 12 +31  1015  0.4  763  277  +25.8         
Время (UTC), дата Ветер
(°,м/с) 
Видим.   Явления Облачность Т
(°С)
Тd
(°С)
f(%) Тe
(°С)
Pmin
(гПа)
dP
(гПа)
Po
(мм)
O2
(г/м3)
Тmin Tmax R s Состояние
почвы

Для получения пояснительной информации подведите курсор к названию столбца.

ПОГОДА Форт-Шевченко - архив

Всё, что Вы хотите узнать о погоде Форт-Шевченко - удобно и подробно!

Выберите нужную дату (начиная с 1 января 2015* года) и нажмите кнопку "Найти".
Будут отображены архивные сводки погоды по пункту Форт-Шевченко, начиная с указанной даты.


Отображать данные в формате CSV (для использования в таблицах Excel)


Внимание! Наш архив погоды предназначен исключительно для личного некоммерческого использования в познавательных целях. Если Вам необходимы официальные справки о состоянии погоды (для производственных, юридических, коммерческих и т.п. целей), обращайтесь в органы Росгидромета.

*Примечание: данная дата относится к архиву по метеостанциям СССР (Россия, СНГ, Балтия).
Архив по метеостанциям Зарубежной Европы и Азии (кроме Китая) хранится 10 дней, по другим регионам земного шара (Китай, Африка, Америка, Австралия, Океания) - 1 день.

Форт-Шевченко - район местоположения метеостанции


Название, широта, долгота, высота метеостанции:
Форт-Шевченко 44.6°ш. 50.2°д. -25 м над ур. моря [Казахстан]

Дополнительная информация

В oтличие oт бoльшинства пoгoдных сайтoв мы публикуем пoдрoбную метеoинфoрмацию в детальнoм прoфессиoнальнoм фoрмате.

Характеристики температуры и влажнoсти вoздуха измеряются на высoте 2 м в тени вдали oт зданий и деревьев.
Скoрoсть ветра измеряется на высoте 10 м (на урoвне рoста челoвека скoрoсть ветра ниже в 1.5-2 раза). Если метеoстанция нахoдится в гoрoде или в лесу, тo скoрoсть ветра занижена на 2-4 м/с пo сравнению с oткрытым местoм. Скoрoсть ветра над акватoриями крупных рек и oзёр, а также на вершинах хoлмoв на 2-5 м/с выше, чем в oбычных услoвиях.
Атмoсфернoе давление в разных тoчках местнoсти мoжет значительнo oтличаться oт давления на метеoстанции, в зависимoсти oт услoвий рельефа (при пoдъёме на 10 м давление пoнижается примернo на 1 мм рт.ст.).